EHI
0 0 1 5 7 3 0 0 0 0 0 0 0 0 0 0 0 0 0 0 0 0 0 0 0 0 0 0 0 0 0 0 0 0 0 0 0 0 0 0 0 0 0
0 0 1 4 6 3 0 0 0 0 0 0 0 0 0 0 0 0 0 0 0 0 0 0 0 0 0 0 0 0 0 0 0 0 0 0 0 0 0 0 0 0 0
0 0 0 2 4 2 0 0 0 0 0 0 0 0 0 0 0 0 0 0 0 0 0 0 0 0 0 0 0 0 0 0 0 0 0 0 0 0 0 0 0 0 0
0 0 0 1 2 1 0 0 0 0 0 0 0 0 0 0 0 0 0 0 0 0 0 0 0 0 0 0 0 0 0 0 0 0 0 0 0 0 0 0 0 0 0
0 0 0 0 0 0 0 0 0 0 0 0 0 0 0 0 0 0 0 0 0 0 0 0 0 0 0 0 0 0 0 0 0 0 0 0 0 0 0 0 0 0 0
0 0 0 0 0 0 0 0 0 0 0 0 0 0 0 0 0 0 0 0 0 0 0 0 0 0 0 0 0 0 0 0 0 0 0 0 0 0 0 0 0 0 0
0 0 0 0 0 0 0 0 0 0 0 0 0 0 0 0 0 0 0 0 0 0 0 0 0 0 0 0 0 0 0 0 0 0 0 0 0 0 0 0 0 0 0
0 0 0 0 0 0 0 0 0 0 0 0 0 0 0 0 0 0 0 0 0 0 0 0 0 0 0 0 0 0 0 0 0 0 0 0 0 0 0 0 0 0 0
0 0 0 0 0 0 0 0 0 0 0 0 0 0 0 0 0 0 0 0 0 0 0 0 0 0 0 0 0 0 0 0 0 0 0 0 0 0 0 0 0 0 0
0 0 0 0 0 0 0 0 0 0 0 0 0 0 0 0 0 0 0 0 0 0 0 0 0 0 0 0 0 0 0 0 0 0 0 0 0 0 0 0 0 0 0
0 0 0 0 0 0 0 0 0 0 0 0 0 0 0 0 0 0 0 0 0 0 0 0 0 0 0 0 0 0 0 0 0 0 0 0 0 0 0 0 0 0 0
0 0 0 0 0 0 0 0 0 0 0 0 0 0 0 0 0 0 0 0 0 0 0 0 0 0 0 0 0 0 0 0 0 0 0 0 0 0 0 0 0 0 0
0 0 0 0 0 0 0 0 0 0 0 0 0 0 0 0 0 0 0 0 0 0 0 0 0 0 0 0 0 0 0 0 0 0 0 0 0 0 0 0 0 0 0
0 0 0 0 0 0 0 0 0 0 0 0 0 0 0 0 0 0 0 0 0 0 0 0 0 0 0 0 0 0 0 0 0 0 0 0 0 0 0 0 0 0 0
0 0 0 0 0 0 0 0 0 0 0 0 0 0 0 0 0 0 0 0 0 0 0 0 0 0 0 0 0 0 0 0 0 0 0 0 0 0 0 0 0 0 0
0 0 0 0 0 0 0 0 0 0 0 0 0 0 0 0 0 0 0 0 0 0 0 0 0 0 0 0 0 0 0 0 0 0 0 0 0 0 0 0 0 0 0
0 0 0 0 0 0 0 0 0 0 0 0 0 0 0 0 0 0 0 0 0 0 0 0 0 0 0 0 0 0 0 0 0 0 0 0 0 0 0 0 0 0 0
0 0 0 0 0 0 0 0 0 0 0 0 0 0 0 0 0 0 0 0 0 0 0 0 0 0 0 0 0 0 0 0 0 0 0 0 0 0 0 0 0 0 0
0 0 0 0 0 0 0 0 0 0 0 0 0 0 0 0 0 0 0 0 0 0 0 0 0 0 0 0 0 0 0 0 0 0 0 0 0 0 0 0 0 0 0
0 0 0 0 0 0 0 0 0 0 0 0 0 0 0 0 0 0 0 0 0 0 0 0 0 0 0 0 0 0 0 0 0 0 0 0 0 0 0 0 0 0 0
0 0 0 0 0 0 0 0 0 0 0 0 0 0 0 0 0 0 0 0 0 0 0 0 0 0 0 0 0 0 0 0 0 0 0 0 0 0 0 0 0 0 0
0 0 0 0 0 0 0 0 0 0 0 0 0 0 0 0 0 0 0 0 0 0 0 0 0 0 0 0 0 0 0 0 0 0 0 0 0 0 0 0 0 0 0
0 0 0 0 0 0 0 0 0 0 0 0 0 0 0 0 0 0 0 0 0 0 0 0 0 0 0 0 0 0 0 0 0 0 0 0 0 0 0 0 0 0 0
0 0 0 0 0 0 0 0 0 0 0 0 0 0 0 0 0 0 0 0 0 0 0 0 0 0 0 0 0 0 0 0 0 0 0 0 0 0 0 0 0 0 0
0 0 0 0 0 0 0 0 0 0 0 0 0 0 0 0 0 0 0 0 0 0 0 0 0 0 0 0 0 0 0 0 0 0 0 0 0 0 0 0 0 0 0
0 0 0 0 0 0 0 0 0 0 0 0 0 0 0 0 0 0 0 0 0 0 0 0 0 0 0 0 0 0 0 0 0 0 0 0 0 0 0 0 0 0 0
Wind_Speed
7 10 14 12 15 15 14 13 11 8 7 5 4 4 4 3 3 4 3 1 1 3 3 3 4 4 2 3 3 3 2 2 3 4 5 6 7 6 2 2 5 5 2
7 11 13 12 15 14 14 13 11 9 7 5 4 4 4 3 3 2 1 1 0 2 3 5 6 6 4 1 1 1 1 1 1 3 5 6 4 5 5 4 6 5 2
7 11 13 13 14 14 13 12 11 9 7 5 5 4 4 4 4 3 1 1 1 2 3 5 7 8 6 4 1 0 1 1 2 4 8 8 5 3 7 6 6 7 6
8 11 12 14 13 13 13 12 11 9 6 5 5 4 5 5 4 3 1 1 2 3 3 5 7 8 7 5 4 2 1 2 3 6 9 7 6 3 7 8 8 6 5
8 10 10 11 12 13 13 12 10 8 6 5 5 5 4 6 5 4 1 1 2 3 4 5 6 6 7 5 5 4 4 4 2 8 9 8 8 5 8 10 9 8 6
8 9 11 10 11 12 12 12 10 7 6 5 5 6 6 6 6 4 2 1 2 3 4 5 6 6 6 6 7 8 9 8 6 9 8 9 8 6 10 11 10 11 10
7 8 10 10 10 11 12 11 10 7 6 6 5 6 6 5 5 4 2 0 2 3 5 6 6 7 8 9 10 10 10 8 10 10 9 9 9 9 12 13 13 11 12
6 7 8 10 8 10 11 11 10 8 7 6 6 5 4 4 2 2 3 2 3 5 6 7 7 8 8 9 10 11 11 9 11 10 10 9 9 11 15 15 15 13 13
6 7 7 10 10 11 9 9 10 9 8 7 7 6 4 2 2 2 3 4 5 6 7 8 10 10 10 11 10 10 9 8 12 10 10 9 8 12 16 17 17 16 15
7 7 8 8 9 10 11 10 9 9 8 8 7 5 3 3 4 3 5 4 6 8 9 10 11 11 12 12 11 10 8 9 13 11 8 8 10 14 17 18 18 19 18
7 7 8 8 8 8 8 7 10 9 9 8 8 7 6 8 7 6 6 3 7 9 10 11 12 12 12 11 11 11 9 9 10 8 8 9 14 17 18 19 19 20 20
10 10 9 10 9 9 7 7 7 8 8 8 7 6 6 6 5 6 4 7 9 10 11 13 13 13 12 9 8 9 8 10 9 8 8 12 17 19 20 20 21 22 22
9 9 10 10 10 9 7 7 5 5 5 7 8 7 6 5 5 5 5 5 8 9 9 8 10 8 8 8 8 8 9 9 7 8 9 13 18 20 21 22 23 23 24
8 9 9 10 10 10 9 7 6 5 5 5 6 7 5 4 5 5 5 6 6 5 6 7 6 9 9 11 11 12 12 9 8 8 9 11 18 21 22 23 24 25 26
6 7 8 10 11 10 9 7 7 7 6 6 5 5 6 5 5 5 5 5 6 6 6 7 8 9 10 10 10 11 12 13 13 12 9 12 18 22 23 24 25 26 27
5 6 7 9 11 11 9 8 7 6 5 5 4 5 6 5 5 5 6 6 6 6 6 7 9 9 8 9 11 12 13 13 13 13 12 11 16 21 24 26 26 27 28
5 5 6 7 9 10 10 8 5 4 4 4 4 5 5 5 6 5 6 6 6 6 7 7 9 8 8 9 11 12 11 13 13 14 14 12 11 15 22 25 27 28 28
5 5 4 2 5 7 6 5 3 2 2 2 2 3 4 5 5 5 5 5 6 6 6 6 7 8 8 9 10 10 10 11 14 15 14 13 12 11 14 21 25 27 28
6 6 6 5 3 5 5 4 3 3 2 2 2 3 3 4 4 3 4 5 6 5 5 5 6 7 9 9 10 10 11 11 13 13 14 15 14 14 13 13 18 23 26
7 8 9 10 9 9 7 7 7 7 7 7 7 8 8 8 8 6 5 7 7 5 6 6 8 8 8 9 10 10 11 12 12 12 13 13 12 14 14 15 13 13 20
10 11 12 12 10 8 7 8 8 8 8 9 9 12 12 11 11 9 7 8 8 7 7 9 8 10 9 9 10 11 12 12 12 10 10 12 14 14 15 16 13 12 10
11 12 13 13 12 11 9 9 9 9 9 8 8 10 12 12 11 8 9 7 7 6 8 8 8 8 8 9 10 12 10 11 9 10 13 14 14 14 15 15 15 15 13
11 12 11 13 13 13 12 9 8 8 7 7 8 8 10 10 10 9 9 8 7 7 7 8 9 9 9 10 9 9 10 11 14 11 13 13 15 14 14 15 17 18 18
11 11 13 14 14 12 11 10 11 9 8 7 6 6 7 9 10 9 9 8 8 7 8 8 9 9 9 9 8 7 9 13 12 13 12 13 16 16 17 15 16 17 18
10 10 12 13 13 12 12 11 11 9 7 5 5 6 6 6 8 9 8 8 8 7 8 9 9 9 8 8 8 9 10 10 13 15 17 15 13 13 14 16 15 15 17
9 10 10 12 12 11 11 11 11 10 8 7 7 6 5 4 5 9 8 8 7 7 8 9 9 9 8 9 8 8 9 10 12 13 17 18 16 14 16 14 14 14 14
Wind_Direction
173 170 164 178 165 160 160 157 155 155 157 152 154 163 158 150 136 137 134 125 37 2 345 347 9 15 75 106 111 107 100 85 51 17 346 328 332 328 308 317 291 238 157
155 166 167 179 168 165 165 161 158 162 169 172 178 191 185 197 206 196 226 266 248 15 4 1 4 358 355 41 120 137 151 129 39 345 330 283 262 311 300 304 308 313 263
152 164 169 177 170 169 168 164 163 169 180 196 208 211 215 213 215 208 158 46 21 25 16 353 348 347 349 357 344 220 255 291 305 325 300 269 236 257 288 288 297 281 249
157 166 174 163 173 173 171 169 168 175 188 209 229 236 234 222 215 206 188 48 11 15 11 352 338 344 353 8 8 346 320 307 315 316 282 286 272 229 277 276 277 279 250
162 173 164 162 174 176 174 170 171 180 196 219 237 253 264 241 217 207 199 12 4 4 356 339 329 330 344 354 349 336 322 302 293 279 288 286 273 256 267 273 265 265 258
166 175 164 173 178 180 176 172 174 183 206 229 241 252 275 256 223 206 192 13 356 347 334 327 326 315 312 315 312 307 306 305 263 281 287 279 269 246 257 270 261 258 256
167 174 166 177 186 186 181 176 176 186 211 234 245 253 280 278 238 213 180 220 324 323 320 314 310 308 301 294 291 291 295 303 282 284 283 278 273 270 260 265 261 252 256
169 174 169 175 195 191 189 183 183 192 212 234 249 261 283 312 276 225 203 238 280 301 304 294 288 286 284 286 287 290 294 294 283 276 272 270 271 267 261 262 267 252 249
171 178 181 184 192 198 203 196 193 198 211 230 247 261 273 319 333 290 273 271 277 289 298 297 290 282 277 276 279 282 285 286 279 271 270 267 261 262 262 261 264 265 249
179 192 196 198 202 202 204 201 203 204 210 224 241 257 258 228 225 241 254 262 279 286 291 295 295 292 287 284 280 278 279 276 266 263 259 255 250 260 263 261 260 263 262
194 203 208 211 212 217 220 203 208 210 212 222 227 221 239 250 249 236 257 263 266 272 276 279 283 287 289 272 257 259 264 263 269 267 260 252 251 256 258 258 260 260 261
204 206 208 214 216 219 221 222 225 224 220 227 241 236 246 256 265 275 264 246 259 264 266 265 270 274 268 265 246 229 257 264 270 262 254 245 249 253 255 254 254 256 258
214 209 212 213 216 219 216 224 225 226 231 235 241 246 253 261 260 258 260 241 246 249 262 261 262 262 267 273 280 274 272 277 272 269 261 245 251 256 257 255 253 252 252
225 223 220 217 216 219 221 221 225 223 226 230 233 242 247 252 258 264 264 271 274 271 277 278 277 280 279 278 277 278 278 273 269 270 268 245 252 257 259 259 257 256 254
242 237 231 224 221 215 216 223 227 228 230 232 236 242 245 254 264 273 277 281 282 285 284 284 286 291 290 287 282 279 277 275 273 269 264 239 242 252 256 257 257 256 255
271 262 246 232 225 219 213 216 222 230 233 250 250 256 260 267 279 289 287 286 285 284 286 286 287 288 284 284 284 281 277 273 269 268 268 260 237 243 249 252 252 252 252
314 299 277 254 234 224 221 223 232 240 254 262 269 278 276 275 281 281 282 284 287 291 292 289 292 289 287 287 285 284 283 280 278 275 272 271 264 244 245 252 254 253 251
347 346 344 286 230 214 211 208 216 250 282 285 296 294 289 288 286 288 291 302 314 314 309 308 307 302 298 297 296 295 290 284 280 279 276 271 268 266 253 248 252 256 257
22 29 42 57 102 140 147 135 114 94 65 41 26 9 5 358 348 337 340 340 339 335 329 324 314 314 309 307 302 298 293 289 286 282 278 277 274 271 271 264 251 252 257
52 56 64 72 85 106 114 110 98 84 73 64 57 54 51 49 44 38 32 20 10 4 358 349 335 325 313 313 308 299 295 291 284 283 285 286 283 279 276 277 272 257 249
65 63 63 69 78 92 99 100 95 86 80 72 63 59 56 53 48 43 34 28 17 14 4 354 345 331 325 329 313 308 298 286 291 288 297 300 295 292 287 283 280 279 269
74 72 71 70 72 75 81 83 88 90 78 74 66 56 50 48 43 36 30 22 14 0 358 353 348 331 324 327 321 314 308 307 300 319 306 296 296 296 294 295 292 287 283
77 76 78 78 79 83 90 97 101 98 90 72 59 52 45 43 39 34 25 14 5 357 351 347 344 336 326 323 328 317 315 315 320 296 306 308 304 302 303 302 298 294 289
88 85 83 82 81 81 86 88 88 83 77 64 53 52 50 42 34 25 18 9 1 356 351 346 345 333 328 324 325 318 313 308 307 307 306 307 311 308 303 300 297 295 294
99 93 89 86 81 79 81 84 85 83 81 72 59 47 39 37 32 19 11 5 360 355 352 345 339 337 330 326 323 317 313 309 301 306 307 308 302 299 298 298 296 294 293
109 100 97 93 87 83 82 79 79 80 75 66 51 36 25 23 20 18 4 4 0 356 348 342 336 334 330 326 319 313 312 306 306 305 303 306 304 304 302 297 293 291 291